This is the latest recevied weather packets stored in our database for station/object F4GSP-4. If no packets are shown the sender has not sent any weather packets the latest 10 day(s).
| Time | Temp. | Humidity | Pressure | Rain* | Wind** | Luminosity | Snow |
|---|---|---|---|---|---|---|---|
| 1777668700 | 10.56° C | 50% | 1035.2 hPa | - | - | - | - |
| 1777667799 | 11.11° C | 50% | 1035 hPa | - | - | - | - |
| 1777666899 | 11.11° C | 50% | 1034.9 hPa | - | - | - | - |
| 1777665999 | 11.67° C | 49% | 1034.8 hPa | - | - | - | - |
| 1777665099 | 12.22° C | 49% | 1034.5 hPa | - | - | - | - |
| 1777664199 | 12.78° C | 49% | 1034.3 hPa | - | - | - | - |
| 1777663299 | 12.78° C | 48% | 1034 hPa | - | - | - | - |
| 1777662398 | 13.33° C | 48% | 1033.8 hPa | - | - | - | - |
| 1777661498 | 14.44° C | 47% | 1033.6 hPa | - | - | - | - |
| 1777660598 | 15.56° C | 47% | 1033.4 hPa | - | - | - | - |
| 1777659698 | 16.67° C | 47% | 1033.1 hPa | - | - | - | - |
| 1777658798 | 17.22° C | 47% | 1032.9 hPa | - | - | - | - |
| 1777657898 | 18.33° C | 47% | 1032.7 hPa | - | - | - | - |
| 1777656997 | 18.33° C | 47% | 1032.7 hPa | - | - | - | - |
| 1777656097 | 18.89° C | 46% | 1032.4 hPa | - | - | - | - |
| 1777655197 | 19.44° C | 46% | 1032.3 hPa | - | - | - | - |
| 1777654297 | 21.67° C | 46% | 1032.2 hPa | - | - | - | - |
| 1777653397 | 22.22° C | 46% | 1032.2 hPa | - | - | - | - |
| 1777652497 | 23.33° C | 46% | 1032.1 hPa | - | - | - | - |
| 1777651597 | 25° C | 47% | 1032 hPa | - | - | - | - |
| 1777650696 | 26.11° C | 47% | 1032 hPa | - | - | - | - |
| 1777649796 | 24.44° C | 48% | 1031.9 hPa | - | - | - | - |
| 1777648896 | 22.22° C | 48% | 1031.9 hPa | - | - | - | - |
| 1777647996 | 23.33° C | 47% | 1031.8 hPa | - | - | - | - |
| 1777647096 | 25° C | 47% | 1031.7 hPa | - | - | - | - |
* Rain since midnight (hover to see other rain measurements)
** Current wind speed in m/s (hover to see current wind gust speed)